QPF
0.01 0.01 0.01 0.01 0.01 0.04 0.04 0.04 0.03 0.02 0.02 0.03 0.03 0.05 0.06 0.06 0.05 0.04 0.04 0.04 0.02 0.02 0.03 0.05 0.07 0.04 0.05 0.05 0.06 0.07 0.07 0.05 0.04 0.09 0.08 0.06 0.03 0.02 0.02 0.01 0.02 0.02 0.01
0.01 0.01 0.01 0.01 0.01 0.03 0.04 0.04 0.03 0.02 0.01 0.02 0.03 0.05 0.07 0.06 0.06 0.05 0.06 0.03 0.03 0.02 0.02 0.05 0.06 0.05 0.07 0.07 0.09 0.09 0.08 0.06 0.04 0.07 0.12 0.13 0.10 0.06 0.02 0.02 0.02 0.02 0.02
0.00 0.01 0.01 0.01 0.01 0.02 0.04 0.04 0.04 0.04 0.03 0.04 0.04 0.05 0.07 0.07 0.07 0.06 0.07 0.04 0.03 0.02 0.03 0.05 0.04 0.06 0.04 0.07 0.08 0.08 0.06 0.06 0.05 0.03 0.07 0.12 0.12 0.09 0.05 0.02 0.01 0.02 0.02
0.01 0.00 0.01 0.01 0.01 0.01 0.02 0.04 0.05 0.05 0.05 0.06 0.05 0.04 0.04 0.05 0.05 0.05 0.06 0.07 0.05 0.04 0.03 0.03 0.04 0.05 0.05 0.07 0.04 0.05 0.07 0.06 0.04 0.04 0.03 0.04 0.07 0.09 0.09 0.05 0.02 0.02 0.02
0.00 0.00 0.00 0.01 0.01 0.01 0.03 0.05 0.06 0.06 0.07 0.09 0.08 0.07 0.07 0.09 0.09 0.10 0.10 0.11 0.09 0.07 0.06 0.05 0.06 0.05 0.06 0.06 0.05 0.09 0.06 0.05 0.04 0.03 0.04 0.04 0.05 0.05 0.08 0.10 0.06 0.05 0.02
0.01 0.01 0.00 0.00 0.01 0.02 0.03 0.05 0.07 0.07 0.07 0.10 0.09 0.08 0.09 0.11 0.14 0.15 0.13 0.10 0.10 0.10 0.09 0.09 0.09 0.08 0.09 0.09 0.06 0.06 0.04 0.05 0.06 0.06 0.05 0.05 0.05 0.05 0.06 0.07 0.07 0.06 0.03
0.01 0.02 0.01 0.02 0.03 0.04 0.03 0.04 0.05 0.05 0.05 0.07 0.08 0.08 0.10 0.12 0.13 0.14 0.15 0.12 0.09 0.08 0.10 0.13 0.14 0.13 0.13 0.09 0.08 0.06 0.06 0.06 0.06 0.07 0.05 0.03 0.04 0.04 0.04 0.05 0.04 0.05 0.02
0.00 0.01 0.01 0.01 0.03 0.04 0.03 0.05 0.06 0.05 0.05 0.06 0.08 0.08 0.11 0.11 0.11 0.14 0.16 0.13 0.10 0.09 0.11 0.12 0.10 0.09 0.11 0.09 0.10 0.08 0.07 0.07 0.05 0.05 0.06 0.05 0.03 0.02 0.03 0.03 0.04 0.05 0.05
0.02 0.01 0.01 0.01 0.02 0.03 0.04 0.06 0.09 0.08 0.07 0.08 0.08 0.09 0.10 0.10 0.11 0.12 0.13 0.13 0.13 0.10 0.13 0.13 0.13 0.10 0.10 0.11 0.11 0.10 0.09 0.08 0.06 0.05 0.07 0.05 0.03 0.03 0.02 0.02 0.03 0.05 0.06
0.01 0.00 0.01 0.01 0.02 0.03 0.04 0.06 0.06 0.07 0.09 0.09 0.08 0.08 0.10 0.10 0.11 0.13 0.12 0.10 0.12 0.11 0.11 0.12 0.13 0.12 0.13 0.13 0.15 0.12 0.11 0.10 0.08 0.07 0.09 0.05 0.03 0.04 0.03 0.03 0.04 0.05 0.05
0.00 0.00 0.00 0.01 0.02 0.02 0.04 0.07 0.07 0.07 0.07 0.08 0.08 0.09 0.10 0.09 0.11 0.11 0.11 0.12 0.14 0.12 0.10 0.11 0.13 0.14 0.13 0.14 0.15 0.12 0.12 0.10 0.09 0.08 0.07 0.05 0.05 0.06 0.05 0.04 0.04 0.05 0.05
0.00 0.00 0.00 0.01 0.01 0.02 0.05 0.06 0.06 0.06 0.05 0.06 0.06 0.09 0.09 0.09 0.10 0.10 0.11 0.15 0.16 0.15 0.12 0.13 0.14 0.12 0.12 0.14 0.14 0.12 0.14 0.12 0.11 0.10 0.10 0.07 0.07 0.09 0.07 0.07 0.06 0.06 0.08
0.01 0.03 0.03 0.02 0.02 0.03 0.04 0.04 0.04 0.04 0.06 0.06 0.07 0.09 0.10 0.10 0.11 0.12 0.14 0.14 0.15 0.15 0.15 0.13 0.13 0.11 0.12 0.14 0.16 0.15 0.15 0.13 0.12 0.13 0.13 0.09 0.09 0.09 0.09 0.07 0.07 0.07 0.07
0.01 0.03 0.03 0.03 0.03 0.03 0.03 0.04 0.05 0.05 0.06 0.07 0.09 0.10 0.10 0.11 0.11 0.12 0.14 0.14 0.13 0.13 0.14 0.13 0.11 0.11 0.13 0.15 0.17 0.17 0.16 0.16 0.16 0.15 0.14 0.12 0.14 0.15 0.14 0.11 0.10 0.10 0.10
0.00 0.01 0.01 0.01 0.02 0.02 0.03 0.03 0.04 0.05 0.06 0.06 0.08 0.09 0.09 0.12 0.11 0.10 0.10 0.11 0.12 0.11 0.13 0.13 0.12 0.11 0.12 0.12 0.15 0.16 0.16 0.20 0.20 0.18 0.17 0.16 0.16 0.14 0.12 0.09 0.10 0.12 0.12
0.00 0.00 0.00 0.01 0.03 0.04 0.04 0.04 0.05 0.05 0.06 0.08 0.10 0.10 0.11 0.14 0.13 0.12 0.12 0.12 0.10 0.11 0.13 0.14 0.14 0.13 0.11 0.15 0.18 0.20 0.24 0.25 0.24 0.22 0.18 0.15 0.12 0.10 0.08 0.07 0.07 0.08 0.10
0.01 0.01 0.01 0.01 0.05 0.09 0.07 0.06 0.06 0.05 0.06 0.07 0.08 0.09 0.11 0.13 0.13 0.13 0.13 0.14 0.13 0.14 0.15 0.17 0.17 0.17 0.20 0.21 0.19 0.19 0.20 0.23 0.24 0.22 0.20 0.15 0.11 0.11 0.10 0.10 0.11 0.12 0.13
0.01 0.01 0.01 0.01 0.02 0.07 0.10 0.09 0.06 0.05 0.06 0.07 0.06 0.08 0.10 0.10 0.11 0.12 0.12 0.12 0.13 0.14 0.15 0.18 0.18 0.21 0.22 0.21 0.18 0.18 0.16 0.18 0.20 0.18 0.17 0.16 0.14 0.13 0.14 0.13 0.15 0.16 0.16
0.01 0.01 0.01 0.01 0.01 0.03 0.05 0.08 0.08 0.07 0.06 0.05 0.04 0.05 0.06 0.08 0.08 0.10 0.11 0.11 0.12 0.15 0.18 0.21 0.21 0.21 0.22 0.25 0.23 0.22 0.20 0.21 0.20 0.19 0.17 0.14 0.12 0.14 0.15 0.16 0.16 0.13 0.11
0.00 0.00 0.00 0.00 0.01 0.03 0.05 0.06 0.07 0.08 0.08 0.06 0.06 0.06 0.07 0.07 0.10 0.13 0.18 0.18 0.16 0.16 0.19 0.19 0.19 0.19 0.19 0.21 0.20 0.19 0.22 0.23 0.20 0.18 0.15 0.14 0.14 0.15 0.14 0.13 0.11 0.09 0.09
0.01 0.00 0.00 0.01 0.03 0.04 0.05 0.05 0.06 0.07 0.08 0.07 0.07 0.07 0.07 0.07 0.08 0.10 0.13 0.17 0.18 0.17 0.15 0.13 0.12 0.12 0.14 0.18 0.18 0.18 0.19 0.19 0.18 0.16 0.14 0.14 0.13 0.10 0.09 0.08 0.08 0.09 0.10
0.01 0.01 0.01 0.02 0.03 0.04 0.04 0.05 0.05 0.06 0.07 0.07 0.07 0.07 0.07 0.07 0.06 0.07 0.09 0.12 0.14 0.13 0.10 0.08 0.07 0.08 0.08 0.09 0.11 0.12 0.15 0.17 0.19 0.18 0.16 0.15 0.15 0.12 0.10 0.08 0.10 0.12 0.12
0.01 0.02 0.03 0.03 0.03 0.04 0.04 0.05 0.06 0.07 0.08 0.09 0.07 0.07 0.07 0.09 0.08 0.07 0.07 0.07 0.07 0.07 0.07 0.07 0.07 0.07 0.06 0.08 0.09 0.09 0.10 0.13 0.12 0.12 0.12 0.11 0.11 0.09 0.08 0.09 0.10 0.09 0.07
0.01 0.02 0.06 0.07 0.06 0.05 0.04 0.04 0.05 0.06 0.07 0.07 0.06 0.05 0.05 0.06 0.07 0.06 0.05 0.05 0.06 0.06 0.05 0.05 0.06 0.06 0.07 0.06 0.05 0.04 0.04 0.06 0.07 0.08 0.09 0.09 0.08 0.07 0.06 0.05 0.05 0.04 0.03
0.02 0.04 0.08 0.08 0.07 0.05 0.04 0.04 0.05 0.04 0.04 0.04 0.04 0.05 0.04 0.04 0.03 0.03 0.02 0.03 0.03 0.03 0.03 0.04 0.05 0.05 0.05 0.04 0.04 0.03 0.04 0.05 0.07 0.08 0.08 0.07 0.07 0.07 0.06 0.06 0.05 0.04 0.04
0.03 0.04 0.06 0.06 0.06 0.04 0.03 0.04 0.05 0.04 0.03 0.03 0.04 0.04 0.04 0.03 0.03 0.02 0.02 0.02 0.02 0.02 0.01 0.01 0.02 0.03 0.03 0.03 0.03 0.03 0.03 0.04 0.05 0.05 0.05 0.05 0.05 0.05 0.04 0.03 0.03 0.02 0.02
MSLP
1005.56 1006.21 1006.91 1007.63 1008.34 1009.00 1009.61 1010.16 1010.63 1011.05 1011.41 1011.71 1011.97 1012.18 1012.36 1012.52 1012.66 1012.81 1012.99 1013.19 1013.45 1013.74 1014.08 1014.46 1014.85 1015.25 1015.65 1016.03 1016.41 1016.77 1017.13 1017.49 1017.84 1018.19 1018.50 1018.78 1018.99 1019.12 1019.17 1019.15 1019.09 1019.02 1018.97
1005.62 1006.19 1006.82 1007.49 1008.16 1008.80 1009.42 1009.99 1010.51 1010.98 1011.40 1011.76 1012.05 1012.27 1012.43 1012.54 1012.62 1012.70 1012.80 1012.95 1013.17 1013.46 1013.82 1014.23 1014.67 1015.11 1015.55 1015.96 1016.34 1016.72 1017.08 1017.45 1017.82 1018.19 1018.54 1018.85 1019.09 1019.24 1019.28 1019.24 1019.13 1018.99 1018.86
1005.76 1006.21 1006.75 1007.34 1007.95 1008.56 1009.16 1009.73 1010.28 1010.79 1011.25 1011.65 1011.97 1012.21 1012.36 1012.44 1012.48 1012.52 1012.57 1012.69 1012.90 1013.19 1013.57 1014.01 1014.48 1014.96 1015.41 1015.83 1016.22 1016.58 1016.93 1017.30 1017.67 1018.06 1018.44 1018.78 1019.06 1019.25 1019.32 1019.28 1019.16 1018.98 1018.79
1005.94 1006.28 1006.72 1007.23 1007.78 1008.35 1008.91 1009.47 1010.00 1010.51 1010.98 1011.39 1011.71 1011.95 1012.10 1012.18 1012.20 1012.22 1012.27 1012.38 1012.59 1012.90 1013.30 1013.77 1014.26 1014.76 1015.22 1015.64 1016.01 1016.36 1016.69 1017.03 1017.40 1017.79 1018.19 1018.57 1018.89 1019.12 1019.23 1019.22 1019.11 1018.92 1018.69
1006.13 1006.38 1006.75 1007.21 1007.71 1008.23 1008.75 1009.26 1009.75 1010.21 1010.64 1011.01 1011.31 1011.53 1011.67 1011.74 1011.77 1011.79 1011.85 1011.99 1012.22 1012.55 1012.98 1013.47 1013.98 1014.49 1014.95 1015.36 1015.72 1016.04 1016.35 1016.67 1017.02 1017.41 1017.81 1018.21 1018.57 1018.84 1019.00 1019.04 1018.95 1018.77 1018.53
1006.29 1006.51 1006.86 1007.31 1007.78 1008.26 1008.73 1009.16 1009.57 1009.94 1010.27 1010.56 1010.79 1010.96 1011.07 1011.14 1011.17 1011.22 1011.32 1011.49 1011.76 1012.12 1012.57 1013.08 1013.61 1014.13 1014.59 1015.00 1015.35 1015.65 1015.94 1016.24 1016.57 1016.94 1017.34 1017.75 1018.12 1018.43 1018.64 1018.72 1018.68 1018.52 1018.29
1006.40 1006.65 1007.04 1007.51 1007.99 1008.45 1008.85 1009.20 1009.49 1009.73 1009.93 1010.09 1010.22 1010.31 1010.38 1010.42 1010.47 1010.54 1010.68 1010.89 1011.20 1011.60 1012.08 1012.61 1013.15 1013.67 1014.15 1014.56 1014.90 1015.20 1015.48 1015.77 1016.08 1016.43 1016.82 1017.22 1017.60 1017.93 1018.17 1018.29 1018.29 1018.18 1017.97
1006.47 1006.80 1007.27 1007.80 1008.31 1008.76 1009.11 1009.36 1009.52 1009.61 1009.65 1009.66 1009.66 1009.65 1009.64 1009.66 1009.71 1009.81 1009.98 1010.23 1010.58 1011.01 1011.51 1012.05 1012.61 1013.15 1013.63 1014.05 1014.42 1014.73 1015.01 1015.29 1015.59 1015.92 1016.29 1016.67 1017.04 1017.38 1017.64 1017.80 1017.85 1017.79 1017.63
1006.51 1006.97 1007.54 1008.15 1008.71 1009.15 1009.45 1009.61 1009.64 1009.57 1009.45 1009.30 1009.16 1009.04 1008.96 1008.94 1008.98 1009.09 1009.29 1009.58 1009.95 1010.40 1010.92 1011.48 1012.04 1012.59 1013.09 1013.53 1013.92 1014.26 1014.56 1014.84 1015.14 1015.45 1015.79 1016.15 1016.51 1016.83 1017.11 1017.30 1017.40 1017.39 1017.29
1006.59 1007.17 1007.85 1008.53 1009.12 1009.56 1009.82 1009.89 1009.80 1009.60 1009.33 1009.04 1008.78 1008.56 1008.41 1008.35 1008.38 1008.50 1008.71 1009.02 1009.41 1009.87 1010.39 1010.94 1011.51 1012.06 1012.58 1013.05 1013.46 1013.83 1014.15 1014.45 1014.75 1015.05 1015.37 1015.70 1016.03 1016.34 1016.62 1016.83 1016.98 1017.03 1016.99
1006.76 1007.43 1008.18 1008.91 1009.51 1009.94 1010.16 1010.17 1009.99 1009.69 1009.32 1008.93 1008.57 1008.28 1008.08 1007.99 1008.01 1008.13 1008.35 1008.66 1009.05 1009.50 1010.01 1010.55 1011.10 1011.65 1012.17 1012.65 1013.09 1013.48 1013.83 1014.14 1014.44 1014.73 1015.03 1015.33 1015.63 1015.93 1016.20 1016.44 1016.62 1016.73 1016.77
1007.07 1007.80 1008.57 1009.28 1009.87 1010.27 1010.45 1010.41 1010.19 1009.83 1009.40 1008.96 1008.56 1008.24 1008.01 1007.91 1007.92 1008.04 1008.26 1008.56 1008.94 1009.37 1009.85 1010.36 1010.89 1011.41 1011.91 1012.39 1012.83 1013.23 1013.59 1013.91 1014.21 1014.49 1014.77 1015.05 1015.33 1015.61 1015.88 1016.13 1016.35 1016.51 1016.60
1007.56 1008.28 1009.01 1009.68 1010.21 1010.56 1010.70 1010.64 1010.40 1010.04 1009.61 1009.18 1008.78 1008.46 1008.24 1008.14 1008.15 1008.27 1008.49 1008.78 1009.13 1009.53 1009.96 1010.42 1010.90 1011.37 1011.84 1012.29 1012.71 1013.10 1013.46 1013.78 1014.07 1014.34 1014.60 1014.86 1015.12 1015.39 1015.65 1015.91 1016.15 1016.35 1016.48
1008.24 1008.89 1009.54 1010.11 1010.55 1010.84 1010.95 1010.88 1010.67 1010.34 1009.96 1009.58 1009.22 1008.94 1008.75 1008.67 1008.70 1008.82 1009.02 1009.29 1009.61 1009.96 1010.34 1010.74 1011.15 1011.56 1011.97 1012.37 1012.75 1013.10 1013.44 1013.74 1014.02 1014.27 1014.52 1014.76 1015.01 1015.26 1015.52 1015.78 1016.02 1016.24 1016.40
1009.07 1009.63 1010.14 1010.59 1010.94 1011.16 1011.24 1011.19 1011.02 1010.77 1010.47 1010.16 1009.88 1009.66 1009.52 1009.46 1009.50 1009.62 1009.81 1010.06 1010.34 1010.65 1010.97 1011.30 1011.63 1011.96 1012.29 1012.61 1012.93 1013.24 1013.53 1013.80 1014.06 1014.31 1014.54 1014.77 1015.00 1015.25 1015.49 1015.74 1015.97 1016.19 1016.36
1010.00 1010.44 1010.82 1011.15 1011.40 1011.56 1011.63 1011.62 1011.52 1011.35 1011.15 1010.93 1010.73 1010.58 1010.48 1010.45 1010.50 1010.62 1010.79 1011.01 1011.26 1011.51 1011.77 1012.03 1012.28 1012.53 1012.77 1013.01 1013.26 1013.50 1013.75 1013.99 1014.22 1014.46 1014.68 1014.91 1015.13 1015.35 1015.58 1015.81 1016.02 1016.21 1016.37
1010.94 1011.27 1011.55 1011.76 1011.94 1012.07 1012.15 1012.18 1012.15 1012.08 1011.98 1011.85 1011.73 1011.63 1011.57 1011.57 1011.62 1011.73 1011.88 1012.07 1012.28 1012.50 1012.70 1012.89 1013.07 1013.24 1013.39 1013.55 1013.72 1013.90 1014.09 1014.30 1014.52 1014.74 1014.96 1015.18 1015.40 1015.61 1015.81 1016.00 1016.17 1016.32 1016.44
1011.82 1012.07 1012.27 1012.42 1012.56 1012.68 1012.79 1012.88 1012.93 1012.95 1012.93 1012.88 1012.82 1012.77 1012.73 1012.73 1012.78 1012.87 1013.01 1013.17 1013.35 1013.53 1013.69 1013.83 1013.95 1014.04 1014.13 1014.21 1014.31 1014.43 1014.58 1014.76 1014.96 1015.17 1015.39 1015.61 1015.81 1016.00 1016.17 1016.32 1016.45 1016.55 1016.62
1012.56 1012.78 1012.94 1013.08 1013.22 1013.37 1013.52 1013.68 1013.80 1013.90 1013.95 1013.96 1013.94 1013.91 1013.88 1013.88 1013.91 1013.99 1014.11 1014.26 1014.42 1014.58 1014.71 1014.81 1014.88 1014.92 1014.95 1014.97 1015.01 1015.09 1015.20 1015.35 1015.53 1015.74 1015.95 1016.16 1016.36 1016.52 1016.66 1016.76 1016.83 1016.87 1016.89
1013.14 1013.36 1013.54 1013.70 1013.88 1014.08 1014.29 1014.51 1014.70 1014.86 1014.96 1015.01 1015.02 1015.00 1014.97 1014.96 1014.99 1015.06 1015.17 1015.31 1015.46 1015.61 1015.72 1015.80 1015.84 1015.85 1015.83 1015.81 1015.81 1015.84 1015.91 1016.04 1016.21 1016.40 1016.61 1016.81 1016.98 1017.12 1017.22 1017.27 1017.29 1017.28 1017.24
1013.54 1013.80 1014.03 1014.25 1014.49 1014.75 1015.03 1015.31 1015.56 1015.76 1015.90 1015.98 1016.00 1015.98 1015.96 1015.95 1015.98 1016.05 1016.16 1016.30 1016.46 1016.61 1016.73 1016.80 1016.82 1016.80 1016.75 1016.69 1016.65 1016.65 1016.69 1016.79 1016.93 1017.10 1017.29 1017.47 1017.62 1017.73 1017.79 1017.80 1017.77 1017.71 1017.63
1013.81 1014.14 1014.42 1014.71 1015.02 1015.35 1015.70 1016.02 1016.32 1016.55 1016.71 1016.80 1016.84 1016.84 1016.82 1016.82 1016.86 1016.95 1017.08 1017.24 1017.41 1017.57 1017.70 1017.77 1017.79 1017.75 1017.68 1017.59 1017.51 1017.47 1017.47 1017.53 1017.64 1017.78 1017.94 1018.09 1018.21 1018.29 1018.31 1018.29 1018.22 1018.12 1018.01
1014.02 1014.40 1014.76 1015.11 1015.48 1015.87 1016.25 1016.61 1016.93 1017.18 1017.36 1017.46 1017.51 1017.53 1017.54 1017.57 1017.63 1017.75 1017.91 1018.10 1018.30 1018.48 1018.62 1018.70 1018.71 1018.66 1018.57 1018.45 1018.33 1018.25 1018.21 1018.22 1018.28 1018.38 1018.50 1018.61 1018.69 1018.74 1018.73 1018.68 1018.59 1018.47 1018.35
1014.23 1014.66 1015.07 1015.47 1015.89 1016.30 1016.70 1017.08 1017.40 1017.65 1017.83 1017.95 1018.02 1018.06 1018.11 1018.18 1018.29 1018.45 1018.65 1018.88 1019.11 1019.31 1019.46 1019.55 1019.56 1019.49 1019.38 1019.23 1019.08 1018.95 1018.86 1018.82 1018.83 1018.88 1018.94 1019.01 1019.06 1019.07 1019.04 1018.98 1018.87 1018.75 1018.62
1014.51 1014.97 1015.41 1015.84 1016.27 1016.68 1017.08 1017.44 1017.74 1017.98 1018.16 1018.29 1018.38 1018.45 1018.54 1018.66 1018.82 1019.03 1019.27 1019.54 1019.80 1020.02 1020.19 1020.28 1020.29 1020.22 1020.08 1019.91 1019.73 1019.56 1019.42 1019.33 1019.28 1019.28 1019.29 1019.32 1019.33 1019.32 1019.28 1019.21 1019.10 1018.99 1018.87
1014.90 1015.37 1015.82 1016.25 1016.66 1017.05 1017.42 1017.74 1018.01 1018.22 1018.39 1018.51 1018.62 1018.73 1018.85 1019.02 1019.23 1019.48 1019.77 1020.07 1020.36 1020.60 1020.78 1020.87 1020.88 1020.80 1020.66 1020.48 1020.27 1020.07 1019.90 1019.77 1019.68 1019.63 1019.60 1019.59 1019.58 1019.56 1019.51 1019.44 1019.35 1019.24 1019.12
Thickness
5832 5830 5825 5820 5813 5807 5801 5795 5790 5787 5782 5776 5771 5767 5765 5765 5765 5765 5764 5761 5760 5758 5757 5757 5755 5754 5753 5752 5750 5748 5746 5745 5747 5743 5740 5744 5747 5746 5746 5745 5745 5744 5743
5828 5825 5821 5817 5811 5806 5800 5795 5791 5786 5782 5778 5774 5770 5768 5766 5765 5765 5763 5761 5759 5758 5757 5755 5754 5752 5751 5750 5750 5748 5744 5744 5745 5740 5734 5731 5734 5741 5747 5746 5745 5745 5744
5827 5823 5819 5815 5811 5805 5800 5797 5791 5787 5782 5779 5774 5770 5766 5764 5762 5761 5760 5759 5758 5757 5756 5755 5754 5752 5751 5748 5747 5747 5744 5741 5743 5744 5737 5728 5725 5732 5741 5745 5746 5745 5744
5831 5824 5819 5814 5810 5806 5802 5798 5793 5788 5783 5779 5774 5769 5763 5760 5761 5761 5760 5759 5758 5756 5755 5754 5753 5752 5751 5749 5747 5747 5746 5743 5740 5742 5743 5741 5737 5729 5729 5737 5744 5745 5745
5833 5826 5820 5815 5811 5808 5803 5798 5793 5787 5783 5779 5775 5770 5767 5765 5764 5762 5760 5758 5757 5756 5754 5753 5752 5751 5750 5749 5748 5747 5746 5744 5742 5741 5740 5739 5738 5737 5730 5727 5734 5740 5744
5832 5827 5822 5816 5810 5808 5803 5798 5791 5786 5782 5778 5774 5770 5767 5765 5762 5759 5757 5756 5756 5755 5754 5752 5751 5750 5749 5748 5747 5747 5745 5744 5743 5742 5742 5739 5736 5734 5733 5730 5731 5733 5740
5829 5823 5818 5812 5808 5804 5801 5797 5790 5784 5781 5778 5774 5772 5769 5766 5762 5760 5757 5756 5755 5754 5753 5753 5751 5749 5748 5747 5747 5745 5744 5743 5742 5741 5741 5742 5741 5740 5738 5734 5732 5733 5738
5828 5823 5819 5813 5808 5804 5800 5795 5789 5784 5781 5777 5774 5772 5769 5766 5764 5762 5760 5758 5757 5757 5756 5754 5751 5749 5748 5747 5746 5745 5744 5743 5742 5741 5740 5740 5741 5741 5740 5737 5733 5728 5730
5823 5821 5818 5814 5809 5804 5800 5795 5789 5784 5781 5777 5774 5771 5769 5767 5764 5763 5762 5759 5758 5758 5756 5753 5751 5749 5747 5746 5745 5743 5743 5742 5741 5740 5740 5738 5739 5740 5741 5740 5737 5729 5722
5818 5816 5814 5811 5807 5804 5800 5795 5790 5785 5781 5778 5775 5772 5769 5767 5765 5763 5761 5759 5758 5757 5754 5752 5750 5748 5746 5745 5743 5742 5742 5740 5739 5739 5738 5737 5737 5738 5738 5738 5737 5734 5728
5816 5813 5810 5808 5805 5801 5797 5792 5788 5784 5780 5777 5775 5772 5769 5767 5765 5762 5761 5759 5758 5755 5752 5750 5748 5746 5744 5743 5741 5740 5740 5738 5737 5737 5737 5735 5735 5734 5735 5735 5734 5732 5729
5813 5809 5805 5802 5799 5796 5792 5789 5785 5782 5779 5777 5773 5770 5768 5765 5763 5761 5760 5759 5756 5754 5751 5748 5746 5744 5742 5742 5741 5739 5739 5737 5735 5735 5734 5733 5733 5731 5731 5730 5729 5728 5728
5805 5801 5798 5795 5792 5790 5787 5785 5783 5780 5778 5775 5771 5767 5764 5762 5761 5759 5758 5757 5754 5751 5749 5746 5744 5742 5741 5740 5740 5738 5736 5735 5734 5733 5732 5731 5730 5727 5728 5727 5725 5725 5725
5796 5792 5789 5788 5787 5785 5783 5781 5779 5778 5775 5772 5767 5763 5761 5760 5758 5757 5755 5753 5751 5748 5746 5744 5742 5740 5739 5738 5737 5735 5734 5733 5733 5732 5731 5729 5728 5726 5724 5722 5721 5720 5718
5789 5786 5783 5781 5781 5779 5778 5777 5775 5773 5771 5767 5763 5760 5759 5757 5755 5753 5751 5749 5747 5745 5742 5740 5738 5737 5736 5735 5734 5733 5732 5730 5729 5728 5727 5727 5725 5724 5721 5719 5716 5714 5712
5784 5782 5779 5777 5775 5774 5773 5772 5770 5767 5765 5762 5759 5757 5755 5753 5751 5748 5746 5743 5741 5739 5738 5736 5733 5732 5732 5731 5730 5729 5728 5726 5724 5723 5722 5722 5720 5718 5715 5713 5711 5709 5705
5779 5776 5773 5772 5771 5770 5769 5766 5765 5763 5760 5756 5754 5752 5750 5748 5745 5744 5741 5738 5735 5734 5732 5730 5729 5726 5726 5726 5725 5724 5724 5722 5719 5718 5716 5715 5714 5711 5709 5706 5703 5700 5698
5773 5770 5769 5768 5767 5766 5765 5763 5761 5758 5754 5751 5749 5748 5745 5743 5740 5738 5735 5733 5731 5728 5726 5724 5723 5721 5719 5719 5719 5718 5717 5714 5712 5710 5709 5707 5705 5703 5700 5698 5694 5690 5688
5767 5765 5764 5762 5761 5759 5759 5757 5753 5750 5747 5745 5743 5742 5740 5738 5735 5732 5730 5728 5725 5723 5720 5718 5716 5714 5711 5711 5711 5710 5709 5706 5702 5700 5698 5697 5695 5693 5692 5689 5685 5681 5678
5761 5758 5757 5756 5753 5751 5752 5748 5744 5741 5738 5737 5736 5736 5734 5731 5729 5727 5724 5722 5719 5716 5713 5710 5708 5706 5704 5703 5703 5702 5701 5697 5693 5690 5687 5685 5684 5682 5682 5679 5675 5671 5668
5752 5751 5749 5746 5744 5744 5743 5739 5736 5733 5733 5732 5731 5729 5727 5724 5723 5721 5718 5715 5712 5708 5705 5702 5699 5697 5695 5694 5693 5693 5692 5688 5684 5680 5676 5673 5673 5672 5670 5668 5665 5661 5659
5743 5742 5739 5737 5737 5737 5734 5730 5727 5727 5727 5725 5722 5719 5718 5717 5715 5712 5709 5707 5704 5700 5696 5693 5690 5687 5685 5684 5682 5682 5681 5679 5675 5670 5666 5663 5662 5661 5659 5657 5654 5652 5650
5734 5733 5731 5728 5728 5727 5726 5721 5719 5718 5717 5715 5711 5709 5707 5705 5703 5701 5699 5697 5695 5692 5688 5685 5681 5677 5675 5672 5672 5671 5669 5667 5664 5660 5657 5655 5653 5651 5649 5646 5644 5642 5640
5724 5724 5721 5718 5716 5716 5715 5713 5712 5710 5708 5704 5700 5697 5695 5692 5689 5688 5685 5683 5682 5681 5679 5675 5672 5668 5665 5663 5663 5662 5659 5657 5654 5651 5648 5646 5644 5641 5639 5637 5634 5632 5629
5714 5713 5710 5708 5706 5705 5705 5704 5703 5702 5698 5695 5691 5687 5683 5679 5675 5671 5667 5667 5663 5665 5667 5665 5662 5660 5654 5649 5650 5651 5649 5647 5645 5643 5641 5638 5635 5632 5629 5626 5623 5619 5616
5704 5702 5700 5698 5696 5695 5694 5694 5694 5693 5691 5686 5682 5679 5675 5671 5667 5662 5655 5650 5651 5651 5651 5651 5649 5644 5642 5640 5641 5640 5638 5637 5636 5634 5631 5626 5623 5619 5616 5613 5609 5606 5602